#�ϑ�����,���ϕ���,���ϕ���,�ő啗��,�ő啗����������,�ő�u�ԕ���,�ő�u�ԕ�����������
#(�N����),(m/s)   ,(16����),(m/s)   ,(16����)        ,(m/s)       ,(16����)            
2012/9/21 0:15,0.4,12,0.4,12,0.4,12
2012/9/21 0:16,0.3,12,0.4,12,0.4,12
2012/9/21 0:17,0.1,12,0.2,12,0.3,12
2012/9/21 0:18,0.1,12,0.1,12,0,12
2012/9/21 0:19,0.1,12,0.1,12,0.3,16
2012/9/21 0:20,0.2,13,0.2,12,0.9,16
2012/9/21 0:21,0.3,14,0.3,12,0.9,16
2012/9/21 0:22,0.3,14,0.3,12,0.9,16
2012/9/21 0:23,0.3,14,0.3,12,0.8,16
2012/9/21 0:24,0.4,14,0.4,12,0.9,15
2012/9/21 0:25,0.4,14,0.4,12,0.9,14
2012/9/21 0:26,0.4,15,0.4,14,0.5,14
2012/9/21 0:27,0.4,15,0.4,14,0.4,1
2012/9/21 0:28,0.4,16,0.4,14,0.5,1
2012/9/21 0:29,0.4,16,0.4,14,0.4,16
2012/9/21 0:30,0.4,16,0.4,14,0.1,2
2012/9/21 0:31,0.3,1,0.3,14,1,3
2012/9/21 0:32,0.4,1,0.4,14,1.3,2
2012/9/21 0:33,0.4,1,0.4,14,1.3,1
2012/9/21 0:34,0.4,1,0.4,14,1.3,1
2012/9/21 0:35,0.5,1,0.5,1,1.4,16
2012/9/21 0:36,0.5,1,0.5,1,1.3,16
2012/9/21 0:37,0.6,1,0.6,1,1,15
2012/9/21 0:38,0.6,1,0.6,1,1,16
2012/9/21 0:39,0.6,1,0.6,1,0.1,11
2012/9/21 0:40,0.6,16,0.6,1,0.4,11
2012/9/21 0:41,0.6,15,0.6,1,0.3,11
2012/9/21 0:42,0.5,14,0.6,1,0.3,9
2012/9/21 0:43,0.4,13,0.5,1,0.1,9
2012/9/21 0:44,0.3,12,0.4,1,0,11
2012/9/21 0:45,0.3,12,0.3,1,0.5,2
2012/9/21 0:46,0.2,12,0.3,1,0.8,1
2012/9/21 0:47,0.2,12,0.2,1,0.9,1
2012/9/21 0:48,0.2,13,0.2,1,1.3,2
2012/9/21 0:49,0.3,15,0.3,1,0.9,1
2012/9/21 0:50,0.3,16,0.3,16,0.5,2
2012/9/21 0:51,0.3,1,0.3,15,0.3,15
2012/9/21 0:52,0.3,1,0.3,14,0.6,3
2012/9/21 0:53,0.4,1,0.4,13,0.5,15
2012/9/21 0:54,0.4,1,0.4,1,0.6,15
2012/9/21 0:55,0.4,1,0.4,1,0.6,16
2012/9/21 0:56,0.4,16,0.4,1,0.8,15
2012/9/21 0:57,0.4,16,0.4,1,0.6,15
2012/9/21 0:58,0.4,16,0.4,1,0.9,15
2012/9/21 0:59,0.3,16,0.4,1,0.6,16
2012/9/21 1:00,0.4,16,0.4,1,1.1,16
2012/9/21 1:01,0.4,16,0.4,1,0.8,16
2012/9/21 1:02,0.5,16,0.5,16,1.1,16
2012/9/21 1:03,0.5,16,0.5,16,0.9,16
2012/9/21 1:04,0.5,16,0.5,16,1,16
2012/9/21 1:05,0.6,16,0.6,16,1.6,16
2012/9/21 1:06,0.6,16,0.6,16,1.9,15
2012/9/21 1:07,0.7,16,0.7,16,1.5,15
2012/9/21 1:08,0.7,16,0.7,16,1.4,16
2012/9/21 1:09,0.8,16,0.8,16,0.9,15
2012/9/21 1:10,0.8,16,0.8,16,1.3,16
2012/9/21 1:11,0.8,16,0.8,16,1.5,16
2012/9/21 1:12,0.8,16,0.8,16,1.4,16
2012/9/21 1:13,0.9,16,0.9,16,1.8,15
2012/9/21 1:14,0.9,15,0.9,16,1.8,15
2012/9/21 1:15,0.9,15,0.9,16,2,15
2012/9/21 1:16,0.9,15,0.9,16,1.6,16
2012/9/21 1:17,0.8,15,0.9,16,1.5,15
2012/9/21 1:18,0.8,15,0.8,16,1.4,15
2012/9/21 1:19,0.8,15,0.8,16,1.3,15
2012/9/21 1:20,0.8,15,0.8,16,0.4,14
2012/9/21 1:21,0.7,15,0.8,16,0.6,16
2012/9/21 1:22,0.6,15,0.7,16,0.3,1
2012/9/21 1:23,0.5,15,0.6,16,0,15
2012/9/21 1:24,0.4,15,0.5,15,0,16
2012/9/21 1:25,0.3,15,0.4,15,0,16
2012/9/21 1:26,0.2,15,0.3,15,0,11
2012/9/21 1:27,0.2,15,0.2,15,0.5,15
2012/9/21 1:28,0.2,15,0.2,15,0.5,16
2012/9/21 1:29,0.1,15,0.1,15,1,16
2012/9/21 1:30,0.2,15,0.2,15,1,15
2012/9/21 1:31,0.2,15,0.2,15,1,15
2012/9/21 1:32,0.3,14,0.3,15,1.3,16
2012/9/21 1:33,0.4,14,0.4,15,1.4,16
2012/9/21 1:34,0.5,14,0.5,14,1.5,15
2012/9/21 1:35,0.6,15,0.6,15,1.8,15
2012/9/21 1:36,0.7,15,0.7,15,1.5,16
2012/9/21 1:37,0.7,15,0.7,15,0.9,16
2012/9/21 1:38,0.7,16,0.7,15,0.8,1
2012/9/21 1:45,0,1,0,1,0.1,1
2012/9/21 1:46,0.2,1,0.2,1,0.4,1
2012/9/21 1:47,0.1,1,0.2,1,0.3,16
2012/9/21 1:48,0.1,1,0.1,1,0.3,1
2012/9/21 1:49,0.1,1,0.1,1,0.5,16
2012/9/21 1:50,0.2,1,0.2,1,0.9,16
2012/9/21 1:51,0.3,16,0.3,1,0.6,1
2012/9/21 1:52,0.3,16,0.3,1,0.8,15
2012/9/21 1:53,0.3,16,0.3,1,0.6,14
2012/9/21 1:54,0.3,16,0.3,1,0.5,15
2012/9/21 4:08,0,13,0,13,0,13
2012/9/21 4:09,0,15,0,13,0,13
2012/9/21 4:10,0,16,0,13,0.1,4
2012/9/21 4:11,0,16,0,13,0,16
2012/9/21 4:12,0,15,0,13,0.4,13
2012/9/21 4:13,0,15,0,13,0.1,16
2012/9/21 4:14,0,15,0,13,0.1,10
2012/9/21 4:15,0.1,15,0.1,15,0.5,9
2012/9/21 4:16,0.1,14,0.1,15,0.4,9
2012/9/21 4:17,0.1,14,0.1,15,1.5,13
2012/9/21 4:18,0.2,14,0.2,14,1.4,14
2012/9/21 4:19,0.2,14,0.2,14,0.6,12
2012/9/21 4:20,0.2,13,0.2,14,0.5,9
2012/9/21 4:21,0.3,12,0.3,13,0.6,10
2012/9/21 4:22,0.3,12,0.3,13,0.8,11
2012/9/21 4:23,0.4,12,0.4,12,0.5,11
2012/9/21 4:24,0.4,12,0.4,12,0.3,14
2012/9/21 4:25,0.3,12,0.4,12,0.3,15
2012/9/21 4:26,0.3,12,0.3,12,0.5,15
2012/9/21 4:27,0.3,12,0.4,12,0.8,1
2012/9/21 4:28,0.3,12,0.3,12,0.9,1
2012/9/21 4:29,0.3,13,0.3,12,1,16
2012/9/21 4:30,0.3,14,0.3,12,0.8,2
2012/9/21 4:31,0.3,16,0.3,12,0.9,1
2012/9/21 4:32,0.3,16,0.3,12,1.1,16
2012/9/21 4:33,0.4,16,0.4,12,1,16
2012/9/21 4:34,0.4,1,0.4,12,0.9,1
2012/9/21 4:35,0.6,1,0.6,1,2,16
2012/9/21 4:36,0.6,1,0.6,1,1.6,16
2012/9/21 4:37,0.8,1,0.8,1,2.2,1
2012/9/21 4:38,0.9,1,0.9,1,2.4,16
2012/9/21 4:39,1,1,1,1,2.1,16
2012/9/21 4:40,1.1,16,1.1,1,1.8,16
2012/9/21 4:41,1.2,16,1.2,16,1.9,1
2012/9/21 4:42,1.3,16,1.3,16,1.8,16
2012/9/21 4:43,1.4,16,1.4,16,1.9,16
2012/9/21 4:44,1.5,16,1.5,16,2,16
2012/9/21 4:45,1.5,16,1.5,16,2.1,16
2012/9/21 4:46,1.6,16,1.6,16,1.9,1
2012/9/21 4:47,1.5,1,1.6,16,1.6,1
2012/9/21 4:48,1.4,1,1.5,16,1.5,1
2012/9/21 4:49,1.4,1,1.4,16,1.3,2
2012/9/21 4:50,1.3,1,1.3,16,0.9,1
2012/9/21 4:51,1.2,1,1.3,16,0.9,16
2012/9/21 4:52,1.1,1,1.2,16,1,2
2012/9/21 4:53,1,1,1.1,16,0.9,3
2012/9/21 4:54,0.9,1,1,16,1.3,1
2012/9/21 4:55,0.8,1,0.9,16,1.3,16
2012/9/21 4:56,0.7,1,0.8,16,1.1,16
2012/9/21 4:57,0.7,1,0.7,16,1,16
2012/9/21 4:58,0.7,1,0.7,1,1.6,2
2012/9/21 4:59,0.7,1,0.7,1,1.9,2
2012/9/21 5:00,0.7,1,0.7,1,1.1,16
2012/9/21 5:01,0.8,1,0.8,1,1.1,16
2012/9/21 5:02,0.8,1,0.8,1,0.9,16
2012/9/21 5:03,0.7,1,0.8,1,0.6,2
2012/9/21 5:04,0.7,1,0.7,1,0.3,4
2012/9/21 5:05,0.6,1,0.7,1,0,4
2012/9/21 5:06,0.5,1,0.6,1,0,1
2012/9/21 5:07,0.5,1,0.5,1,0.6,14
2012/9/21 5:08,0.4,16,0.5,1,0.8,14
2012/9/21 5:09,0.4,16,0.4,1,0.8,14
2012/9/21 5:10,0.4,16,0.4,1,1,8
2012/9/21 5:11,0.4,16,0.4,1,1.1,7
2012/9/21 5:12,0.4,15,0.4,1,0.6,8
2012/9/21 5:13,0.4,13,0.4,1,0.5,14
2012/9/21 5:14,0.4,13,0.4,1,0.3,14
2012/9/21 5:15,0.4,13,0.4,1,0,16
2012/9/21 5:16,0.4,13,0.4,1,0,15
2012/9/21 5:17,0.3,13,0.4,1,0.5,14
2012/9/21 5:18,0.4,13,0.4,16,1.4,12
2012/9/21 5:19,0.5,13,0.5,13,1.5,13
2012/9/21 5:20,0.5,13,0.5,13,1.1,13
2012/9/21 5:21,0.5,13,0.5,13,1.1,13
2012/9/21 5:22,0.5,13,0.5,13,0.9,12
2012/9/21 5:23,0.5,13,0.5,13,0.5,6
2012/9/21 5:24,0.5,13,0.5,13,0.5,8
2012/9/21 5:25,0.5,12,0.5,13,0.4,8
2012/9/21 5:26,0.5,12,0.5,13,0.8,9
2012/9/21 5:27,0.5,11,0.5,13,0.8,9
2012/9/21 5:28,0.5,11,0.5,13,0.8,9
2012/9/21 5:29,0.4,10,0.5,13,0.9,8
2012/9/21 5:30,0.3,10,0.4,13,0.3,5
2012/9/21 5:31,0.3,10,0.3,13,0,12
2012/9/21 5:32,0.2,9,0.2,13,0.4,5
2012/9/21 5:33,0.2,9,0.2,13,0.5,3
2012/9/21 5:34,0.2,8,0.2,13,0.5,4
2012/9/21 5:35,0.2,7,0.2,12,0.3,5
2012/9/21 5:36,0.2,7,0.2,12,0.1,1
2012/9/21 5:37,0.2,6,0.2,11,0.6,6
2012/9/21 5:38,0.2,5,0.2,11,0.6,6
2012/9/21 5:39,0.2,5,0.2,10,0.8,3
2012/9/21 5:40,0.3,4,0.3,10,0.9,3
2012/9/21 5:41,0.4,4,0.4,4,1.3,3
2012/9/21 5:42,0.4,4,0.4,4,1.6,1
2012/9/21 5:43,0.5,3,0.5,4,1.4,16
2012/9/21 5:44,0.5,3,0.5,4,0.6,14
2012/9/21 5:57,0.4,2,0.4,2,0.5,2
2012/9/21 5:58,0.2,1,0.4,2,0.5,2
2012/9/21 5:59,0.1,1,0.2,2,0.1,2
2012/9/21 6:00,0.1,1,0.1,2,0.3,16
2012/9/21 6:01,0.2,1,0.2,2,0.9,16
2012/9/21 6:02,0.3,1,0.3,2,1.6,16
2012/9/21 6:03,0.4,1,0.4,2,1.4,16
2012/9/21 6:04,0.4,1,0.4,2,0.6,1
2012/9/21 6:05,0.4,1,0.4,2,0.9,2
2012/9/21 6:06,0.4,1,0.4,2,0.9,3
2012/9/21 6:07,0.4,1,0.4,2,0.1,3
2012/9/21 6:08,0.4,1,0.4,1,0.4,2
2012/9/21 6:09,0.4,1,0.4,1,0.9,1
2012/9/21 6:10,0.5,1,0.5,1,1.1,16
2012/9/21 6:11,0.5,1,0.5,1,1,1
2012/9/21 6:12,0.5,1,0.5,1,0.6,1
2012/9/21 6:13,0.4,1,0.5,1,1.1,16
2012/9/21 6:14,0.5,1,0.5,1,1.4,1
2012/9/21 6:23,0.1,1,0.1,1,0.1,1
2012/9/21 6:24,0.3,16,0.4,1,0.6,1
2012/9/21 6:25,0.2,16,0.3,1,0.4,16
2012/9/21 6:26,0.2,16,0.2,1,0.4,15
2012/9/21 6:27,0.2,16,0.2,1,0.5,15
2012/9/21 6:28,0.2,16,0.2,1,0.8,16
2012/9/21 6:29,0.3,16,0.3,1,0.6,15
2012/9/21 6:30,0.2,15,0.3,1,0.4,16
2012/9/21 6:31,0.2,15,0.2,1,0.3,16
2012/9/21 6:32,0.2,15,0.2,1,0.3,16
2012/9/21 6:33,0.2,16,0.2,1,0.4,1
2012/9/21 6:34,0.2,16,0.2,16,0.1,1
2012/9/21 6:35,0.2,16,0.2,16,0.4,9
2012/9/21 6:36,0.2,16,0.2,16,0.6,9
2012/9/21 6:37,0.2,16,0.2,16,0.3,8
2012/9/21 6:38,0.2,15,0.2,16,0.8,8
2012/9/21 6:39,0.2,11,0.2,16,1,9
2012/9/21 6:40,0.3,8,0.3,9,1.1,8
2012/9/21 6:41,0.4,8,0.4,8,1,9
2012/9/21 6:42,0.4,8,0.4,8,1.3,8
2012/9/21 6:43,0.5,8,0.5,8,1.3,9
2012/9/21 6:44,0.6,8,0.6,8,1,8
2012/9/21 6:45,0.6,8,0.6,8,0.6,8
2012/9/21 6:46,0.6,8,0.6,8,1.3,7
2012/9/21 6:47,0.7,8,0.7,8,1.3,7
2012/9/21 6:48,0.7,8,0.7,8,0.8,8
2012/9/21 6:49,0.6,8,0.7,8,0.6,3
2012/9/21 6:50,0.6,8,0.6,8,0.8,6
2012/9/21 6:51,0.6,7,0.6,8,0.6,6
2012/9/21 6:52,0.5,7,0.6,8,0.5,3
2012/9/21 6:53,0.4,7,0.4,8,0.6,9
2012/9/21 6:54,0.4,7,0.4,8,0.6,9
2012/9/21 6:55,0.4,7,0.4,8,0.4,9
2012/9/21 6:56,0.3,7,0.4,8,0.1,9
2012/9/21 6:57,0.2,7,0.3,8,0.1,12
2012/9/21 6:58,0.2,8,0.2,8,0.3,12
2012/9/21 6:59,0.2,9,0.2,8,0.6,16
2012/9/21 7:00,0.2,11,0.2,8,0.5,15
2012/9/21 7:01,0.1,12,0.1,7,0.3,14
2012/9/21 7:02,0.2,13,0.2,7,0.6,15
2012/9/21 7:03,0.1,13,0.2,7,0.5,13
2012/9/21 7:04,0.2,13,0.2,7,0.6,10
2012/9/21 7:05,0.2,13,0.2,7,0.4,13
2012/9/21 7:06,0.2,13,0.2,7,0.4,16
2012/9/21 7:07,0.2,13,0.2,7,0.3,15
2012/9/21 7:08,0.2,14,0.2,8,0,16
2012/9/21 7:09,0.1,14,0.2,9,0.1,9
2012/9/21 7:10,0.1,14,0.1,12,0.6,15
2012/9/21 7:11,0.2,14,0.2,12,0.5,15
2012/9/21 12:41,3,10,3,10,3.2,9
2012/9/21 12:42,2.4,10,3,10,3.2,9
2012/9/21 12:43,2.1,10,2.5,10,2.9,9
2012/9/21 12:44,1.8,11,2.1,10,1.9,11
2012/9/21 12:45,1.8,12,1.8,10,3.1,14
2012/9/21 12:46,2.1,12,2.1,10,4.4,15
2012/9/21 12:47,2.2,13,2.2,10,4.4,14
2012/9/21 12:48,2.2,13,2.2,10,3.9,15
2012/9/21 12:49,2.2,13,2.2,10,3.6,13
2012/9/21 12:50,2.2,13,2.2,10,4.3,9
2012/9/21 12:51,2.1,13,2.2,10,3,10
2012/9/21 12:52,2.1,13,2.1,10,3.6,13
2012/9/21 12:53,2.2,13,2.2,13,3.6,12
2012/9/21 12:54,2.3,13,2.3,13,4.3,16
2012/9/21 12:55,2.5,14,2.5,14,5,15
2012/9/21 12:56,2.5,14,2.5,14,4.8,14
2012/9/21 12:57,2.6,14,2.6,14,5.6,14
2012/9/21 12:58,2.7,14,2.7,14,4.8,15
2012/9/21 12:59,2.8,14,2.9,14,4.8,15
2012/9/21 13:00,2.9,14,2.9,14,4.5,14
2012/9/21 13:01,3.2,14,3.2,14,5,16
2012/9/21 13:02,3.1,15,3.2,14,4.3,15
2012/9/21 13:03,3.2,15,3.2,14,4.7,15
2012/9/21 13:04,3.2,15,3.3,15,4.9,15
2012/9/21 13:05,3.1,15,3.2,15,3.2,15
2012/9/21 13:06,3,15,3.1,15,3.3,14
2012/9/21 13:07,2.9,15,3,15,3.2,14
2012/9/21 13:08,2.7,15,2.9,15,2.4,14
2012/9/21 13:09,2.5,15,2.7,15,2.1,15
2012/9/21 13:10,2.4,15,2.5,15,4.3,16
2012/9/21 13:11,2.3,15,2.4,15,4.3,16
2012/9/21 13:12,2.3,15,2.3,15,4.4,16
2012/9/21 13:13,2.2,15,2.3,15,2.5,14
2012/9/21 13:14,2,15,2.1,15,1.5,14
2012/9/21 13:15,1.8,15,1.9,15,2.5,14
2012/9/21 13:16,1.8,15,1.8,15,2.2,13
2012/9/21 13:17,1.7,14,1.7,15,2.1,9
2012/9/21 13:18,1.7,14,1.7,15,3.5,9
2012/9/21 13:19,1.8,14,1.8,15,3.2,8
2012/9/21 13:20,1.7,13,1.8,15,3.2,9
2012/9/21 13:21,1.6,12,1.7,15,3,12
2012/9/21 13:22,1.6,12,1.6,15,3.1,9
2012/9/21 13:23,1.6,11,1.6,15,4.1,9
2012/9/21 13:24,1.7,11,1.7,15,2.7,11
2012/9/21 13:25,1.7,11,1.7,15,1.5,11
2012/9/21 13:26,1.6,10,1.6,14,2,9
2012/9/21 13:27,1.7,10,1.7,14,2.4,7
2012/9/21 13:28,1.6,10,1.7,14,2.4,5
2012/9/21 13:29,1.5,9,1.6,13,2,4
2012/9/21 13:30,1.4,9,1.5,13,0.3,11
2012/9/21 13:31,1.3,9,1.4,11,3.1,10
2012/9/21 13:32,1.4,9,1.4,11,3.7,9
2012/9/21 13:33,1.5,9,1.5,11,4.3,9
2012/9/21 13:34,1.5,9,1.5,11,3.3,11
2012/9/21 13:35,1.6,9,1.6,10,2.5,9
2012/9/21 13:36,1.8,10,1.8,9,4.3,11
2012/9/21 13:37,1.8,10,1.8,9,2.4,12
2012/9/21 13:38,1.8,11,1.8,9,3,13
2012/9/21 13:39,1.9,11,1.9,11,2.7,12
2012/9/21 13:40,2.1,12,2.1,12,2.4,13
2012/9/21 13:41,2.1,12,2.1,12,2.1,2
2012/9/21 13:42,2,12,2.1,12,3,15
2012/9/21 13:43,1.8,13,2,12,2.2,15
2012/9/21 13:44,1.8,13,1.8,12,3.3,15
2012/9/21 13:45,1.9,14,1.9,12,3,15
2012/9/21 13:46,1.7,14,1.8,12,2.9,16
2012/9/21 13:47,1.7,15,1.7,12,2.7,1
2012/9/21 13:48,1.5,15,1.7,12,1.6,1
2012/9/21 13:49,1.5,16,1.5,12,2.7,3
2012/9/21 13:50,1.5,16,1.5,12,1.9,2
2012/9/21 13:51,1.5,16,1.5,12,3.3,1
2012/9/21 13:52,1.4,16,1.5,12,1.8,3
2012/9/21 13:53,1.5,1,1.5,14,4.4,1
2012/9/21 13:54,1.7,1,1.7,14,4.7,2
2012/9/21 13:55,1.8,1,1.8,14,4.7,1
2012/9/21 13:56,2,1,2,1,4.5,16
2012/9/21 13:57,2.1,1,2.1,1,3.5,1
2012/9/21 13:58,2.2,1,2.2,1,3.3,15
2012/9/21 13:59,2.2,1,2.2,1,2.9,16
2012/9/21 14:00,2.3,1,2.3,1,3.7,2
2012/9/21 14:01,2.3,1,2.3,1,3.5,2
2012/9/21 14:02,2.6,1,2.6,1,4.9,1
2012/9/21 14:03,2.6,1,2.7,1,4.2,16
2012/9/21 14:04,2.4,1,2.6,1,2.7,16
2012/9/21 14:05,2.1,1,2.4,1,1.9,1
2012/9/21 14:06,1.9,1,2.1,1,2.7,1
2012/9/21 14:07,1.9,1,1.9,1,3.6,2
2012/9/21 14:08,2,1,2,1,3.7,1
2012/9/21 14:09,2,1,2,1,3.5,1
2012/9/21 14:10,1.9,1,2,1,2.9,1
2012/9/21 14:11,1.8,1,1.9,1,2.1,16
2012/9/21 14:12,1.6,1,1.8,1,2.2,16
2012/9/21 16:10,3.9,1,3.9,1,4.2,16
2012/9/21 16:11,3.7,16,3.9,1,5.2,2
2012/9/21 16:12,3.1,16,3.7,1,4.7,15
2012/9/21 16:13,3.5,16,3.5,1,7,16
2012/9/21 16:14,3.7,16,3.8,1,6.5,16
2012/9/21 16:15,3.7,16,3.8,1,5.1,15
2012/9/21 16:16,3.9,16,3.9,1,6.8,1
2012/9/21 16:17,4.1,16,4.1,16,6.4,16
2012/9/21 16:18,3.9,16,4.1,16,5,16
2012/9/21 16:19,3.7,16,3.9,16,3.6,16
2012/9/21 16:20,3.8,16,3.8,16,6.4,16
2012/9/21 16:21,3.8,16,3.8,16,6.3,16
2012/9/21 16:22,3.9,16,3.9,16,6.2,15
2012/9/21 16:23,4,16,4,16,7,1
2012/9/21 16:24,3.9,16,3.9,16,5.4,15
2012/9/21 16:25,3.9,16,3.9,16,4.7,14
2012/9/21 16:26,3.6,16,3.9,16,3.3,16
2012/9/21 16:27,3.2,16,3.6,16,2.6,16
2012/9/21 16:28,3.2,16,3.2,16,3.7,16
2012/9/21 16:29,3.4,16,3.4,16,4.9,15
2012/9/21 16:30,3.1,16,3.4,16,3.2,15
2012/9/21 16:31,3,16,3.1,16,4.4,16
2012/9/21 16:32,2.8,16,3,16,4.8,15
2012/9/21 16:33,2.5,16,2.8,16,2.4,15
2012/9/21 16:34,2.4,16,2.5,16,4.9,15
2012/9/21 16:35,2.4,16,2.4,16,6.3,15
2012/9/21 16:36,2.6,16,2.6,16,5.7,15
2012/9/21 16:37,2.8,16,2.8,16,6.5,16
2012/9/21 16:38,3.1,16,3.1,16,7.1,15
2012/9/21 16:39,3,16,3.1,16,5.6,15
2012/9/21 16:40,3.1,16,3.1,16,4.4,16
2012/9/21 16:41,3.1,16,3.1,16,3.5,15
2012/9/21 16:42,3.1,16,3.1,16,4.5,16
2012/9/21 16:43,3.3,16,3.3,16,5.8,15
2012/9/21 16:44,3.4,15,3.4,16,6.4,16
2012/9/21 16:45,3.3,16,3.4,16,5,15
2012/9/21 16:46,3.3,16,3.3,16,6.1,16
2012/9/21 16:47,3.4,16,3.4,16,6.2,16
2012/9/21 16:48,3.2,16,3.4,16,4.9,15
2012/9/21 16:49,3.1,16,3.2,16,4.3,16
2012/9/21 16:50,3.1,16,3.2,16,3.6,16
2012/9/21 16:51,3.2,16,3.2,16,5.5,1
2012/9/21 16:52,3.2,16,3.2,16,4.5,16
2012/9/21 16:53,3.3,16,3.3,16,6.4,16
2012/9/21 16:54,3.3,16,3.3,15,6.4,16
2012/9/21 16:55,3.4,16,3.4,16,5.6,16
2012/9/21 16:56,3.4,16,3.5,16,6,16
2012/9/21 16:57,3.3,16,3.4,16,4.5,1
2012/9/21 16:58,3.3,16,3.3,16,5.2,16
2012/9/21 18:13,3.8,15,3.8,15,4.3,15
2012/9/21 18:14,3.6,16,3.9,16,6.2,15
2012/9/21 18:15,3.2,16,3.6,16,7,1
2012/9/21 18:16,3.1,16,3.2,16,7.2,15
2012/9/21 18:17,3.6,16,3.6,16,7.7,14
2012/9/21 18:18,3.5,16,3.6,16,8.2,16
2012/9/21 18:19,3.5,15,3.5,16,6.3,15
2012/9/21 18:20,3.5,15,3.6,16,5.5,16
2012/9/21 18:21,3.3,15,3.5,16,4.5,15
2012/9/21 18:22,3.2,15,3.3,16,3.8,15
2012/9/21 18:23,3,16,3.2,16,3.8,15
2012/9/21 18:24,2.9,15,3,16,4.4,15
2012/9/21 18:25,2.7,15,2.9,16,2.5,16
2012/9/21 18:26,2.6,15,2.7,16,2.2,11
2012/9/21 18:27,2.2,15,2.6,16,2,10
2012/9/21 18:28,2,15,2.2,15,1.8,7
2012/9/21 18:29,1.6,16,1.9,15,0.8,3
2012/9/21 18:30,1.4,15,1.6,15,0.9,8
2012/9/21 18:31,1.3,9,1.3,15,1.8,9
2012/9/21 18:32,1.1,9,1.3,15,2,9
2012/9/21 18:33,1.1,9,1.1,15,1.5,9
2012/9/21 18:34,0.9,9,1,15,1.1,9
2012/9/21 18:35,0.9,9,0.9,15,1.5,13
2012/9/21 18:36,0.8,10,0.9,15,1.5,15
2012/9/21 18:37,0.9,10,0.9,15,1.5,15
2012/9/21 18:38,0.9,11,0.9,15,1.1,13
2012/9/21 18:39,1,11,1,16,1.4,11
2012/9/21 18:40,1,12,1,15,1.8,12
2012/9/21 18:41,1.1,12,1.1,9,2.6,10
2012/9/21 18:42,1.2,12,1.2,12,3.1,11
2012/9/21 18:43,1.4,12,1.4,12,2.7,12
2012/9/21 18:44,1.5,12,1.5,12,2.6,12
2012/9/21 18:45,1.5,12,1.5,12,1.8,11
2012/9/21 18:46,1.4,12,1.5,12,0.6,7
2012/9/21 18:47,1.3,11,1.4,12,1,8
2012/9/21 18:48,1.4,11,1.4,12,3.5,8
2012/9/21 18:49,1.4,10,1.4,12,2.5,9
2012/9/21 18:50,1.5,10,1.5,12,2.6,10
2012/9/21 18:51,1.5,10,1.5,12,2.7,11
2012/9/21 18:52,1.5,10,1.5,12,2.7,10
2012/9/21 18:53,1.5,10,1.5,12,3.2,9
2012/9/21 18:54,1.4,10,1.5,12,2.1,10
2012/9/21 18:55,1.4,10,1.4,12,2.9,9
2012/9/21 18:56,1.6,10,1.6,10,3.1,10
2012/9/21 18:57,1.8,10,1.8,10,2.7,10
2012/9/21 18:58,1.8,10,1.8,10,2.2,10
2012/9/21 18:59,1.7,10,1.8,10,1.8,10
2012/9/21 19:00,1.7,10,1.7,10,1.4,10
2012/9/21 19:01,1.6,10,1.6,10,1.5,11
2012/9/21 19:02,1.4,11,1.6,10,1.4,12
2012/9/21 19:03,1.2,11,1.4,10,0.5,9
2012/9/21 19:04,1.1,11,1.2,10,1.4,14
2012/9/21 19:05,1,11,1.1,10,0.3,14
2012/9/21 19:06,0.8,12,1,10,0.1,3
2012/9/21 19:07,0.7,12,0.8,10,0.8,2
2012/9/21 19:08,0.6,13,0.6,10,1.3,1
2012/9/21 19:09,0.6,14,0.6,10,1.3,2
2012/9/21 19:10,0.6,15,0.6,10,1.4,3
2012/9/21 19:11,0.5,16,0.6,11,0.8,2
2012/9/21 19:12,0.5,1,0.5,11,1.4,3
2012/9/21 19:13,0.7,2,0.7,11,2.5,3
2012/9/21 19:14,0.7,2,0.7,11,2.7,5
2012/9/21 19:15,0.8,3,0.8,11,0.6,6
2012/9/21 19:16,0.8,2,0.8,12,0.5,12
2012/9/21 19:17,0.8,2,0.8,3,1,14
2012/9/21 22:52,0.6,7,0.6,7,0.6,7
2012/9/21 22:53,0.2,6,0.5,7,0.6,7
2012/9/21 22:54,0.1,6,0.1,7,0,6
2012/9/21 22:55,0.1,5,0.1,7,0.1,5
2012/9/21 22:56,0,6,0.1,7,0,6
2012/9/21 22:57,0.1,6,0.1,7,0.5,15
2012/9/21 22:58,0.1,6,0.1,7,0.9,15
2012/9/21 22:59,0.2,5,0.2,7,1,15
2012/9/21 23:00,0.2,4,0.2,7,0.5,15
2012/9/21 23:01,0.3,2,0.3,7,0.9,15
2012/9/21 23:02,0.3,16,0.3,7,0.8,14
2012/9/21 23:03,0.3,15,0.3,3,0.3,15
2012/9/21 23:04,0.3,15,0.3,3,0,15
2012/9/21 23:05,0.3,15,0.3,3,0.1,16
2012/9/21 23:06,0.3,15,0.3,3,0.5,15
2012/9/21 23:07,0.3,15,0.3,3,0.8,16
2012/9/21 23:08,0.3,15,0.3,3,0.6,14
2012/9/21 23:09,0.2,15,0.3,3,0.6,15
2012/9/21 23:10,0.3,15,0.3,3,1,14
2012/9/21 23:11,0.3,15,0.3,2,1.3,15
2012/9/21 23:12,0.4,15,0.4,15,1.4,15
2012/9/21 23:13,0.5,15,0.5,15,1.9,15
2012/9/21 23:14,0.6,15,0.6,15,1.9,15
2012/9/21 23:15,0.8,15,0.8,15,2.1,16
2012/9/21 23:16,0.9,15,0.9,15,2.1,16
2012/9/21 23:17,1,15,1,15,2.2,16
2012/9/21 23:18,1.2,15,1.2,15,2.7,16
2012/9/21 23:19,1.4,15,1.4,15,2.7,15
